Tracking 30970 objects as of 3-Jul-2025
HD Live streaming from Space Station
objects crossing your sky now

COSMOS 1761

Track COSMOS 1761 now!
COSMOS 1761 is classified as:


NORAD ID: 16849
Int'l Code: 1986-050A
Perigee: 4,927.5 km
Apogee: 35,426.0 km
Inclination: 70.2 °
Period: 717.5 minutes
Semi major axis: 26547 km
RCS: 12.1379 m2 (large)
Launch date: July 5, 1986
Source: Commonwealth of Independent States (former USSR) (CIS)
Launch site: PLESETSK MISSILE AND SPACE COMPLEX (PKMTR)
Your satellite tracking list
STARLINK-4809
Track 1 satellite(s)




NASA's NSSDC Master Catalog

Two Line Element Set (TLE):
1 16849U 86050A   25183.72151832 -.00000692  00000-0  00000-0 0  9993
2 16849  70.1696  62.2433 5744094  13.4098 131.7045  2.00706911285582
Source of the keplerian elements: AFSPC